Tracking 30258 objects as of 19-Feb-2025
HD Live streaming from Space Station
objects crossing your sky now

ANNA 1B

Track ANNA 1B now!
10-day predictions
ANNA 1B is classified as:


NORAD ID: 446
Int'l Code: 1962-060A
Perigee: 1,081.1 km
Apogee: 1,186.6 km
Inclination: 50.1 °
Period: 107.8 minutes
Semi major axis: 7504 km
RCS: 0.8414 m2 (medium)
Launch date: October 31, 1962
Source: United States (US)
Launch site: AIR FORCE EASTERN TEST RANGE (AFETR)
Your satellite tracking list
Your tracking list is empty




NASA's NSSDC Master Catalog

Two Line Element Set (TLE):
1 00446U 62060A   25050.45999604 -.00000089  00000-0  73177-4 0  9993
2 00446  50.1423 300.0062 0070315  22.7363 148.5930 13.35341224 39203
Source of the keplerian elements: AFSPC